[[{"header":{"parameterUnit":"m.s-1","parameterCategory":2,"la1":30.2991,"la2":30.254,"lo1":-89.0895,"lo2":-89.0444,"dy":0.0017,"dx":0.0017,"nx":28,"ny":28,"refTime":"2024-07-04T21:00:00:Z","depth":"0","parameterNumber":2,"parameterNumberName":"U-component_of_CURRENTS"},"data":[0,0,0,0,0,0,0,0,0,0,0,0,0,0,0,0,0,0,0,0,0,0,0,0,0,0,0,0,0,0,0,0,0,0,0,0,0,0,0,0,0,0,0,0,0,0,0,0,0,0,0,0,0,0,0,0,0,0,-0.2494,-0.2495,0,-0.2545,-0.2545,-0.2546,-0.244,-0.2437,-0.2435,-0.2432,-0.2272,-0.2271,-0.2269,0,0,0,0,0,0,0,0,0,0,0,0,0,-0.2244,-0.2249,-0.2494,-0.2495,-0.2497,-0.2545,-0.2545,-0.2546,-0.2441,-0.2437,-0.2434,-0.243,-0.2273,-0.2271,-0.2269,0,0,0,0,0,0,0,0,0,0,0,0,0,-0.2325,-0.2251,-0.2494,-0.2454,-0.2452,-0.2545,-0.2545,-0.2546,-0.2442,-0.2437,-0.2433,-0.2429,-0.2273,-0.2271,-0.2269,-0.2342,0,0,-0.2262,-0.2261,0,0,0,0,0,0,0,0,-0.232,-0.2333,-0.2459,-0.2457,-0.2455,-0.2487,-0.2399,-0.2469,-0.2443,-0.2439,-0.2432,-0.2427,-0.2331,-0.2324,-0.2338,-0.2335,-0.2328,-0.2261,-0.226,-0.2259,-0.2258,0,0,0,0,0,0,0,-0.2315,-0.233,-0.2509,-0.2461,-0.2458,-0.2413,-0.242,-0.2412,-0.2401,-0.2439,-0.2433,-0.2449,-0.2327,-0.2341,-0.2333,-0.2325,-0.2262,-0.2259,-0.2258,-0.2257,-0.2245,-0.2246,0,0,0,0,0,0,-0.233,-0.2327,-0.2507,-0.2511,-0.2382,-0.2422,-0.2429,-0.2476,-0.2405,-0.2394,-0.2453,-0.2445,-0.2347,-0.2336,-0.2327,-0.2303,-0.2259,-0.2257,-0.2256,-0.2244,-0.2246,-0.2247,0,0,0,0,0,0,-0.2325,-0.2347,-0.2505,-0.2421,-0.2439,-0.2432,-0.2485,-0.248,-0.2473,-0.2419,-0.2401,-0.245,-0.2343,-0.233,-0.2299,-0.2299,-0.2256,-0.2254,-0.2243,-0.2245,-0.2246,-0.2323,0,0,0,0,0,0,-0.2318,-0.2345,-0.2357,-0.2424,-0.2444,-0.2541,-0.249,-0.2484,-0.2494,-0.2482,-0.2412,-0.2394,-0.2339,-0.2303,-0.2297,-0.2295,-0.2252,-0.2242,-0.2244,-0.2246,-0.2319,-0.2327,-0.2334,0,0,0,0,0,-0.2309,-0.2335,-0.2358,-0.2378,-0.2471,-0.2543,-0.2548,-0.2523,-0.2498,-0.2499,-0.2451,-0.2395,-0.231,-0.2304,-0.2296,-0.2293,-0.2241,-0.2243,-0.2246,-0.2316,-0.2326,-0.2334,0,0,0,0,0,0,-0.2221,-0.2331,-0.2355,-0.2411,-0.2471,-0.2526,-0.2527,-0.2535,-0.2509,-0.2482,-0.2422,-0.2402,-0.2373,-0.2337,-0.2331,-0.2296,-0.2262,-0.2264,-0.2319,-0.2327,-0.2335,-0.2303,-0.225,0,0,0,0,0,-0.2223,-0.2264,-0.2372,-0.2407,-0.2453,-0.2501,-0.2519,-0.2522,-0.2526,-0.251,-0.2474,-0.2425,-0.2389,-0.2358,-0.2326,-0.2324,-0.2259,-0.2313,-0.2321,-0.2327,-0.2297,-0.2286,-0.2289,-0.2255,-0.2255,-0.2255,0,0,-0.2194,-0.2259,-0.2279,-0.239,-0.2438,-0.2494,-0.2498,-0.2541,-0.2547,-0.2499,-0.2477,-0.2456,-0.2397,-0.2377,-0.236,-0.2337,-0.229,-0.233,-0.2336,-0.2302,-0.2289,-0.2292,-0.2294,-0.2256,-0.2256,-0.2256,0,0,-0.2164,-0.2238,-0.2269,-0.2337,-0.2426,-0.2469,-0.2489,-0.2565,-0.2552,-0.2567,-0.252,-0.2491,-0.2464,-0.2408,-0.2378,-0.2412,-0.2338,-0.242,-0.2421,-0.2413,-0.2415,-0.2416,-0.2277,-0.2266,-0.2416,-0.2416,-0.2416,0,-0.2123,-0.2199,-0.2281,-0.2342,-0.2392,-0.2464,-0.2515,-0.2532,-0.2568,-0.2569,-0.255,-0.2517,-0.2462,-0.2423,-0.2421,-0.2421,-0.2381,-0.2394,-0.2421,-0.2422,-0.2422,-0.228,-0.2266,-0.242,-0.2419,-0.2419,-0.2419,0,-0.2129,-0.2195,-0.2228,-0.2332,-0.2387,-0.2449,-0.2523,-0.2547,-0.256,-0.2578,-0.2568,-0.2524,-0.2495,-0.2486,-0.2453,-0.2438,-0.2392,-0.2442,-0.2398,-0.243,-0.2277,-0.2261,-0.2426,-0.2424,-0.2423,-0.2422,0,0,-0.205,-0.2203,-0.2213,-0.2282,-0.2399,-0.2462,-0.2482,-0.2545,-0.2565,-0.2572,-0.2577,-0.2522,-0.2529,-0.2493,-0.2473,-0.2448,-0.2384,-0.245,-0.2448,-0.2304,-0.2287,-0.2118,-0.2083,-0.248,-0.2479,-0.2478,-0.2157,0,-0.2039,-0.2144,-0.2211,-0.2306,-0.2395,-0.2471,-0.2498,-0.2546,-0.2572,-0.2593,-0.2553,-0.2552,-0.2526,-0.2526,-0.25,-0.2429,-0.2358,-0.2459,-0.228,-0.227,-0.2116,-0.2067,-0.2034,-0.1736,-0.2141,-0.2138,-0.2136,0,-0.2018,-0.2119,-0.2216,-0.2357,-0.2401,-0.2447,-0.254,-0.2572,-0.2602,-0.2621,-0.2616,-0.2605,-0.2527,-0.254,-0.238,-0.2465,-0.2364,-0.2297,-0.2285,-0.2087,-0.2076,-0.1783,-0.1692,-0.1719,-0.2111,-0.2113,-0.2115,0,-0.1962,-0.2104,-0.2187,-0.2246,-0.2418,-0.2453,-0.2512,-0.2576,-0.2592,-0.2639,-0.2617,-0.2603,-0.2502,-0.247,-0.2255,-0.2363,-0.2047,-0.2185,-0.1905,-0.1887,-0.179,-0.1766,-0.1697,-0.2064,-0.2065,-0.2066,-0.2067,0,-0.1948,-0.202,-0.2177,-0.226,-0.2352,-0.2455,-0.2525,-0.2581,-0.2613,-0.2558,-0.2623,-0.25,-0.2491,-0.2296,-0.2226,-0.1926,-0.2002,-0.1844,-0.1802,-0.1807,-0.1789,-0.1753,-0.1804,-0.2054,-0.2056,-0.2059,-0.2061,0,-0.1899,-0.1992,-0.2123,-0.2304,-0.2347,-0.2418,-0.252,-0.2537,-0.258,-0.2489,-0.248,-0.2372,-0.2108,-0.1998,-0.1816,-0.1772,-0.1562,-0.1471,-0.139,-0.1346,-0.1233,-0.1288,-0.1097,-0.1066,-0.1197,-0.1191,-0.1186,0,-0.1884,-0.1954,-0.2148,-0.2196,-0.2284,-0.239,-0.2423,-0.2518,-0.2475,-0.2328,-0.221,-0.1968,-0.1678,-0.133,-0.1276,-0.1086,-0.1174,-0.0957,-0.1182,-0.1152,-0.1187,-0.1274,-0.1273,-0.1049,-0.1043,-0.1038,-0.1035,0,-0.1884,-0.1944,-0.2056,-0.2153,-0.221,-0.224,-0.2254,-0.2219,-0.2195,-0.207,-0.173,-0.15,-0.1166,-0.0909,-0.0706,-0.0675,-0.1001,-0.0854,-0.0901,-0.1091,-0.1106,-0.108,-0.1249,-0.0993,-0.0997,-0.1,-0.1002,-0.1004,-0.1845,-0.1894,-0.1992,-0.2055,-0.2091,-0.1977,-0.1893,-0.1833,-0.1671,-0.1356,-0.1261,-0.0843,-0.0643,-0.0375,-0.0378,-0.0468,-0.0584,-0.057,-0.0629,-0.0709,-0.073,-0.0714,-0.0391,-0.0392,-0.0392,-0.0393,-0.0393,0,-0.1742,-0.1781,-0.186,-0.1869,-0.1769,-0.1827,-0.1674,-0.1501,-0.1183,-0.0953,-0.064,-0.0216,-0.0054,-0.0058,-0.0191,-0.028,-0.0427,-0.0336,-0.0541,-0.0547,-0.0585,-0.0637,-0.026,-0.026,-0.026,-0.026,-0.026,-0.026,-0.1685,-0.1676,-0.1706,-0.1505,-0.1469,-0.1206,-0.1036,-0.0824,-0.0616,-0.0176,0.0107,0.029,0.028,0.001,-0.0235,-0.0296,-0.0395,-0.0355,-0.0389,-0.0536,-0.0568,-0.0599,-0.0663,-0.0298,-0.0298,-0.0384,-0.0385,-0.0386]},{"header":{"parameterUnit":"m.s-1","parameterCategory":2,"la1":30.2991,"la2":30.254,"lo1":-89.0895,"lo2":-89.0444,"dy":0.0017,"dx":0.0017,"nx":28,"ny":28,"refTime":"2024-07-04T21:00:00:Z","depth":"0","parameterNumber":3,"parameterNumberName":"V-component_of_CURRENTS"},"data":[0,0,0,0,0,0,0,0,0,0,0,0,0,0,0,0,0,0,0,0,0,0,0,0,0,0,0,0,0,0,0,0,0,0,0,0,0,0,0,0,0,0,0,0,0,0,0,0,0,0,0,0,0,0,0,0,0,0,-0.0709,-0.0709,0,-0.0703,-0.0703,-0.0702,-0.0613,-0.0611,-0.061,-0.0608,-0.046,-0.0458,-0.0456,0,0,0,0,0,0,0,0,0,0,0,0,0,-0.0558,-0.0561,-0.0709,-0.0709,-0.0709,-0.0703,-0.0703,-0.0702,-0.0613,-0.0611,-0.0609,-0.0607,-0.0461,-0.0458,-0.0455,0,0,0,0,0,0,0,0,0,0,0,0,0,-0.059,-0.0562,-0.0708,-0.0668,-0.0665,-0.0703,-0.0703,-0.0702,-0.0614,-0.0611,-0.0608,-0.0606,-0.0462,-0.0458,-0.0455,-0.0488,0,0,-0.0445,-0.0443,0,0,0,0,0,0,0,0,-0.0589,-0.0595,-0.0674,-0.0671,-0.0668,-0.0661,-0.0596,-0.0625,-0.0615,-0.0628,-0.0608,-0.0605,-0.0519,-0.0511,-0.0511,-0.0481,-0.0475,-0.0444,-0.0442,-0.0441,-0.044,0,0,0,0,0,0,0,-0.0587,-0.0595,-0.0701,-0.0675,-0.0671,-0.0622,-0.0624,-0.0601,-0.0582,-0.0626,-0.0621,-0.063,-0.0515,-0.0514,-0.0506,-0.0472,-0.0444,-0.0441,-0.0439,-0.0438,-0.04,-0.0401,0,0,0,0,0,0,-0.0606,-0.0594,-0.0701,-0.0701,-0.0627,-0.0628,-0.0629,-0.0661,-0.0585,-0.0574,-0.0632,-0.0626,-0.0521,-0.051,-0.05,-0.0524,-0.0441,-0.0438,-0.0436,-0.0399,-0.04,-0.0401,0,0,0,0,0,0,-0.0604,-0.0617,-0.0702,-0.0649,-0.0657,-0.0634,-0.067,-0.0663,-0.0648,-0.0592,-0.0576,-0.0623,-0.0519,-0.0505,-0.0473,-0.0517,-0.0436,-0.0433,-0.0398,-0.0399,-0.0401,-0.0577,0,0,0,0,0,0,-0.06,-0.0617,-0.063,-0.0652,-0.0661,-0.0739,-0.0673,-0.0665,-0.0661,-0.0652,-0.058,-0.0564,-0.0516,-0.0479,-0.047,-0.0511,-0.043,-0.0396,-0.0398,-0.04,-0.057,-0.0585,-0.0597,0,0,0,0,0,-0.0595,-0.0632,-0.0631,-0.0643,-0.0687,-0.0742,-0.0742,-0.071,-0.0663,-0.068,-0.0616,-0.0566,-0.0484,-0.0478,-0.0467,-0.0508,-0.0395,-0.0398,-0.04,-0.0564,-0.0582,-0.0597,0,0,0,0,0,0,-0.0573,-0.0628,-0.0627,-0.0678,-0.0714,-0.0728,-0.075,-0.0717,-0.0684,-0.0667,-0.0584,-0.0566,-0.0552,-0.0502,-0.0497,-0.0498,-0.043,-0.043,-0.0559,-0.0575,-0.0588,-0.0631,-0.0428,0,0,0,0,0,-0.0581,-0.0617,-0.0669,-0.0707,-0.0746,-0.0746,-0.0755,-0.0744,-0.0728,-0.0709,-0.0655,-0.0596,-0.056,-0.0543,-0.0502,-0.0514,-0.0395,-0.0527,-0.0541,-0.0553,-0.0579,-0.0458,-0.0463,-0.0409,-0.0409,-0.0409,0,0,-0.0579,-0.0616,-0.0632,-0.0703,-0.0737,-0.0823,-0.0745,-0.079,-0.0825,-0.07,-0.0714,-0.0641,-0.0569,-0.0576,-0.0566,-0.0538,-0.049,-0.0556,-0.0568,-0.0586,-0.0461,-0.0466,-0.0471,-0.041,-0.041,-0.041,0,0,-0.065,-0.0649,-0.0738,-0.0788,-0.0858,-0.086,-0.0878,-0.0905,-0.0884,-0.0894,-0.0805,-0.0758,-0.0711,-0.0674,-0.0646,-0.0709,-0.0559,-0.069,-0.0807,-0.0691,-0.0695,-0.0697,-0.0482,-0.0464,-0.0706,-0.0706,-0.0706,0,-0.0652,-0.0781,-0.0767,-0.089,-0.0936,-0.0891,-0.1007,-0.0997,-0.0987,-0.0961,-0.0918,-0.0813,-0.0766,-0.0749,-0.0789,-0.0744,-0.0614,-0.0758,-0.071,-0.071,-0.0709,-0.0489,-0.0466,-0.0715,-0.0714,-0.0713,-0.0712,0,-0.0811,-0.0924,-0.099,-0.1121,-0.1147,-0.124,-0.1244,-0.1233,-0.1179,-0.1144,-0.1091,-0.1009,-0.0936,-0.0926,-0.0895,-0.0875,-0.0756,-0.0734,-0.0675,-0.0726,-0.0488,-0.0462,-0.0727,-0.0724,-0.0722,-0.0719,0,0,-0.0819,-0.1062,-0.1089,-0.1191,-0.1282,-0.1315,-0.1365,-0.1385,-0.1344,-0.1318,-0.1259,-0.1248,-0.115,-0.1114,-0.1037,-0.0976,-0.0856,-0.0886,-0.0875,-0.0683,-0.0512,-0.0479,-0.0443,-0.0825,-0.0824,-0.0822,-0.0322,0,-0.0973,-0.1258,-0.1296,-0.1491,-0.1642,-0.1587,-0.1604,-0.1572,-0.1489,-0.1401,-0.1311,-0.1214,-0.1235,-0.1152,-0.1124,-0.0887,-0.0807,-0.0989,-0.0484,-0.0467,-0.0443,-0.0422,-0.0394,0.0045,-0.0295,-0.029,-0.0287,0,-0.1143,-0.1307,-0.1579,-0.1694,-0.1734,-0.1787,-0.173,-0.1733,-0.1598,-0.151,-0.1425,-0.1285,-0.1179,-0.1172,-0.0875,-0.0979,-0.0801,-0.0637,-0.0612,-0.0517,-0.0391,0.0028,0.0108,0.0145,-0.0245,-0.0248,-0.0251,0,-0.1216,-0.1475,-0.1686,-0.1752,-0.1877,-0.1896,-0.1881,-0.1775,-0.1671,-0.154,-0.1372,-0.1278,-0.1072,-0.094,-0.0655,-0.0732,-0.0266,-0.0296,-0.0089,-0.0076,0.0074,0.0093,0.0228,-0.012,-0.0121,-0.0123,-0.0124,0,-0.1395,-0.1546,-0.1736,-0.1867,-0.1935,-0.197,-0.1924,-0.1874,-0.1692,-0.1485,-0.1416,-0.1167,-0.1004,-0.0712,-0.0582,-0.022,-0.0188,-0.0093,0.0028,0.0021,0.0028,0.0168,0.0166,-0.0104,-0.0108,-0.0112,-0.0115,0,-0.148,-0.1657,-0.1861,-0.201,-0.202,-0.2044,-0.1917,-0.18,-0.1666,-0.1372,-0.129,-0.0977,-0.0602,-0.0408,-0.0044,-0.0003,0.0345,0.037,0.0387,0.0491,0.0607,0.0596,0.0924,0.1027,0.0682,0.0685,0.0688,0,-0.1554,-0.1723,-0.1915,-0.1945,-0.2018,-0.2018,-0.1929,-0.181,-0.1614,-0.12,-0.0993,-0.059,-0.0246,0.0263,0.0373,0.0645,0.064,0.082,0.0588,0.0619,0.0701,0.0677,0.0736,0.0806,0.081,0.0812,0.0815,0,-0.1637,-0.1727,-0.1859,-0.1939,-0.1919,-0.1824,-0.1691,-0.1535,-0.1265,-0.1009,-0.0539,-0.025,0.0215,0.0537,0.0799,0.0898,0.0843,0.0885,0.092,0.0783,0.0775,0.0931,0.0539,0.0841,0.0838,0.0836,0.0835,0.0834,-0.1584,-0.1661,-0.1807,-0.1834,-0.1777,-0.1563,-0.1399,-0.1189,-0.0871,-0.0405,-0.0218,0.0227,0.0583,0.0939,0.1025,0.114,0.1111,0.116,0.1166,0.1156,0.1131,0.0798,0.1182,0.1181,0.1181,0.118,0.118,0,-0.1454,-0.156,-0.1639,-0.1615,-0.1439,-0.1452,-0.1137,-0.0899,-0.0501,-0.02,0.0162,0.0648,0.0981,0.1186,0.1368,0.1413,0.1374,0.1444,0.1402,0.1465,0.121,0.1075,0.1445,0.1445,0.1444,0.1444,0.1444,0.1444,-0.1376,-0.1439,-0.1513,-0.1262,-0.1184,-0.0833,-0.0615,-0.0345,-0.0095,0.036,0.0656,0.0877,0.1207,0.1421,0.1575,0.1586,0.1667,0.1663,0.1735,0.148,0.1451,0.1423,0.1291,0.17,0.17,0.1986,0.1988,0.199]}],[{"header":{"parameterUnit":"m.s-1","parameterCategory":2,"la1":30.2991,"la2":30.254,"lo1":-89.0895,"lo2":-89.0444,"dy":0.0017,"dx":0.0017,"nx":28,"ny":28,"refTime":"2024-07-04T21:00:00:Z","depth":"2","parameterNumber":2,"parameterNumberName":"U-component_of_CURRENTS"},"data":[0,0,0,0,0,0,0,0,0,0,0,0,0,0,0,0,0,0,0,0,0,0,0,0,0,0,0,0,0,0,0,0,0,0,0,0,0,0,0,0,0,0,0,0,0,0,0,0,0,0,0,0,0,0,0,0,0,0,-0.2047,-0.2047,0,-0.2033,-0.2033,-0.2033,-0.2012,-0.2012,-0.2012,-0.2012,-0.2107,-0.211,-0.2113,0,0,0,0,0,0,0,0,0,0,0,0,0,-0.2033,-0.2033,-0.2047,-0.2047,-0.2047,-0.2033,-0.2033,-0.2032,-0.2012,-0.2012,-0.2012,-0.2011,-0.2106,-0.2109,-0.2113,0,0,0,0,0,0,0,0,0,0,0,0,0,-0.203,-0.2033,-0.2047,-0.2036,-0.2035,-0.2033,-0.2033,-0.2032,-0.2012,-0.2012,-0.2012,-0.2011,-0.2105,-0.2109,-0.2113,-0.2146,0,0,-0.2126,-0.2128,0,0,0,0,0,0,0,0,-0.203,-0.203,-0.2038,-0.2037,-0.2036,-0.2025,-0.2063,-0.2076,-0.2012,-0.202,-0.2012,-0.2011,-0.2091,-0.2096,-0.2091,-0.215,-0.2154,-0.2126,-0.2129,-0.2131,-0.2132,0,0,0,0,0,0,0,-0.203,-0.203,-0.204,-0.2038,-0.2036,-0.2024,-0.2023,-0.2065,-0.2058,-0.2019,-0.2018,-0.2018,-0.2091,-0.2087,-0.2093,-0.2156,-0.2126,-0.213,-0.2132,-0.2134,-0.221,-0.221,0,0,0,0,0,0,-0.2036,-0.2031,-0.2041,-0.204,-0.2033,-0.2025,-0.2024,-0.2028,-0.2056,-0.2059,-0.2019,-0.2018,-0.208,-0.2089,-0.2097,-0.2139,-0.2131,-0.2134,-0.2137,-0.2211,-0.221,-0.221,0,0,0,0,0,0,-0.2036,-0.2037,-0.2041,-0.2036,-0.2035,-0.2026,-0.203,-0.2028,-0.2028,-0.2054,-0.206,-0.2022,-0.208,-0.2091,-0.2105,-0.2143,-0.2136,-0.214,-0.2211,-0.2211,-0.221,-0.2223,0,0,0,0,0,0,-0.2036,-0.2038,-0.2045,-0.2036,-0.2036,-0.2044,-0.2031,-0.2028,-0.203,-0.2028,-0.206,-0.2067,-0.2081,-0.2098,-0.2109,-0.2149,-0.2143,-0.2212,-0.2211,-0.221,-0.2224,-0.2223,-0.2223,0,0,0,0,0,-0.2035,-0.2047,-0.2045,-0.2047,-0.2046,-0.2044,-0.2043,-0.2034,-0.203,-0.2033,-0.2029,-0.2067,-0.2101,-0.2101,-0.2114,-0.2156,-0.2212,-0.2211,-0.221,-0.2224,-0.2223,-0.2223,0,0,0,0,0,0,-0.2039,-0.2046,-0.2044,-0.2055,-0.2052,-0.2041,-0.2041,-0.204,-0.2039,-0.2037,-0.2058,-0.2065,-0.209,-0.2111,-0.211,-0.2169,-0.2166,-0.2168,-0.2172,-0.2172,-0.2172,-0.2185,-0.2147,0,0,0,0,0,-0.2045,-0.2057,-0.2056,-0.2063,-0.2061,-0.2054,-0.2053,-0.2049,-0.2046,-0.2045,-0.2064,-0.208,-0.2096,-0.2121,-0.2134,-0.2177,-0.2177,-0.221,-0.2209,-0.2209,-0.2225,-0.2251,-0.2255,-0.2206,-0.2206,-0.2206,0,0,-0.2045,-0.2053,-0.2057,-0.2065,-0.2058,-0.2067,-0.2052,-0.2052,-0.2068,-0.2061,-0.2082,-0.2079,-0.2099,-0.2126,-0.2144,-0.2154,-0.221,-0.2208,-0.2208,-0.2224,-0.225,-0.2256,-0.226,-0.2206,-0.2206,-0.2206,0,0,-0.2047,-0.2058,-0.2065,-0.2072,-0.2074,-0.2076,-0.2081,-0.2077,-0.2081,-0.2096,-0.2085,-0.2089,-0.2135,-0.2141,-0.2156,-0.2166,-0.2196,-0.2185,-0.2221,-0.2245,-0.2251,-0.2255,-0.2212,-0.2212,-0.2202,-0.2202,-0.2202,0,-0.2045,-0.2059,-0.2064,-0.2076,-0.2089,-0.2085,-0.2098,-0.2105,-0.2108,-0.2125,-0.2107,-0.2138,-0.2142,-0.2182,-0.217,-0.2172,-0.2171,-0.2224,-0.2248,-0.2253,-0.2258,-0.2212,-0.2213,-0.2203,-0.2202,-0.2202,-0.2202,0,-0.2051,-0.2068,-0.2071,-0.2092,-0.211,-0.2117,-0.2136,-0.2152,-0.216,-0.2172,-0.22,-0.2181,-0.221,-0.2206,-0.2193,-0.2236,-0.2215,-0.2233,-0.2255,-0.2264,-0.2214,-0.2215,-0.2203,-0.2203,-0.2203,-0.2203,0,0,-0.202,-0.2066,-0.2066,-0.2094,-0.2122,-0.2141,-0.2175,-0.221,-0.2272,-0.2246,-0.2319,-0.2281,-0.2279,-0.229,-0.2278,-0.2289,-0.2282,-0.2282,-0.2283,-0.2248,-0.2298,-0.2166,-0.2154,-0.2322,-0.2324,-0.2325,-0.2232,0,-0.2015,-0.2047,-0.2079,-0.2124,-0.2142,-0.2179,-0.224,-0.228,-0.2319,-0.2393,-0.2362,-0.2423,-0.2315,-0.2356,-0.2332,-0.2312,-0.2294,-0.2303,-0.2287,-0.2285,-0.2178,-0.2155,-0.1978,-0.1873,-0.2233,-0.2233,-0.2233,0,-0.1997,-0.2031,-0.2066,-0.2171,-0.2189,-0.2228,-0.2341,-0.2406,-0.2499,-0.2532,-0.2549,-0.2565,-0.2543,-0.2492,-0.2398,-0.2415,-0.2353,-0.2316,-0.2313,-0.2196,-0.2157,-0.1932,-0.1861,-0.2234,-0.2234,-0.2234,-0.2234,0,-0.1959,-0.2026,-0.2061,-0.2086,-0.2198,-0.2241,-0.2321,-0.2433,-0.2506,-0.2642,-0.2665,-0.2689,-0.2638,-0.2617,-0.2428,-0.247,-0.2318,-0.238,-0.2185,-0.2173,-0.2021,-0.1993,-0.2342,-0.2342,-0.2342,-0.2342,-0.2343,0,-0.1939,-0.197,-0.2049,-0.2071,-0.216,-0.2259,-0.239,-0.247,-0.2612,-0.2656,-0.2725,-0.2695,-0.2665,-0.2549,-0.2481,-0.2256,-0.2332,-0.2177,-0.2151,-0.201,-0.1984,-0.2314,-0.2312,-0.2339,-0.234,-0.234,-0.2341,0,-0.1883,-0.1929,-0.1975,-0.2089,-0.2134,-0.2203,-0.2386,-0.2488,-0.2599,-0.2651,-0.2685,-0.2666,-0.2525,-0.243,-0.2343,-0.2228,-0.2137,-0.2038,-0.1823,-0.1775,-0.1984,-0.1984,-0.192,-0.1915,-0.1911,-0.1907,-0.1904,0,-0.1861,-0.1873,-0.196,-0.1993,-0.2037,-0.2168,-0.2266,-0.245,-0.2511,-0.2562,-0.2531,-0.246,-0.2356,-0.214,-0.1975,-0.1846,-0.1936,-0.161,-0.1682,-0.1965,-0.1947,-0.1953,-0.1959,-0.1461,-0.1455,-0.1449,-0.1445,0,-0.1812,-0.1825,-0.1854,-0.1913,-0.1985,-0.2094,-0.2204,-0.2237,-0.2387,-0.2395,-0.2323,-0.23,-0.2066,-0.1841,-0.1637,-0.1544,-0.1653,-0.1501,-0.185,-0.1597,-0.1525,-0.151,-0.1532,-0.1398,-0.1403,-0.1406,-0.1409,-0.1411,-0.1754,-0.1743,-0.1763,-0.18,-0.1906,-0.1949,-0.1963,-0.203,-0.2068,-0.1967,-0.2028,-0.1851,-0.1805,-0.1413,-0.1288,-0.1146,-0.1312,-0.1275,-0.1295,-0.1319,-0.1285,-0.121,-0.1013,-0.1015,-0.1017,-0.1019,-0.1021,0,-0.1665,-0.1643,-0.1666,-0.1695,-0.1745,-0.1829,-0.1876,-0.1802,-0.172,-0.1644,-0.1565,-0.1307,-0.115,-0.1095,-0.082,-0.08,-0.0821,-0.0767,-0.0821,-0.0865,-0.0905,-0.0856,-0.0466,-0.0465,-0.0464,-0.0463,0,0,-0.1613,-0.1553,-0.1529,-0.15,-0.1543,-0.1505,-0.1476,-0.134,-0.1246,-0.1076,-0.0955,-0.0952,-0.1018,-0.0714,-0.0678,-0.0536,-0.069,-0.0479,-0.0915,-0.1018,-0.1057,-0.1177,-0.1145,0,0,0,0,0]},{"header":{"parameterUnit":"m.s-1","parameterCategory":2,"la1":30.2991,"la2":30.254,"lo1":-89.0895,"lo2":-89.0444,"dy":0.0017,"dx":0.0017,"nx":28,"ny":28,"refTime":"2024-07-04T21:00:00:Z","depth":"2","parameterNumber":3,"parameterNumberName":"V-component_of_CURRENTS"},"data":[0,0,0,0,0,0,0,0,0,0,0,0,0,0,0,0,0,0,0,0,0,0,0,0,0,0,0,0,0,0,0,0,0,0,0,0,0,0,0,0,0,0,0,0,0,0,0,0,0,0,0,0,0,0,0,0,0,0,-0.0241,-0.024,0,-0.0154,-0.0153,-0.0153,-0.0107,-0.0107,-0.0106,-0.0106,0.0014,0.0017,0.002,0,0,0,0,0,0,0,0,0,0,0,0,0,-0.0324,-0.0323,-0.0241,-0.024,-0.0238,-0.0154,-0.0153,-0.0152,-0.0107,-0.0107,-0.0106,-0.0106,0.0013,0.0016,0.002,0,0,0,0,0,0,0,0,0,0,0,0,0,-0.027,-0.0323,-0.0241,-0.0203,-0.0199,-0.0154,-0.0153,-0.0152,-0.0107,-0.0107,-0.0106,-0.0106,0.0012,0.0016,0.002,0.0037,0,0,0.0033,0.0035,0,0,0,0,0,0,0,0,-0.0273,-0.0268,-0.021,-0.0206,-0.0201,-0.0138,-0.0138,-0.0086,-0.0107,-0.0145,-0.0106,-0.0106,-0.0032,-0.0024,-0.0014,0.0042,0.0047,0.0034,0.0036,0.0038,0.004,0,0,0,0,0,0,0,-0.0277,-0.0271,-0.021,-0.0209,-0.0203,-0.0175,-0.0168,-0.0128,-0.0094,-0.0142,-0.0138,-0.0123,-0.003,-0.0018,-0.0011,0.0049,0.0034,0.0038,0.004,0.0042,0.0142,0.0142,0,0,0,0,0,0,-0.0285,-0.0275,-0.0212,-0.0207,-0.0233,-0.0174,-0.0166,-0.0161,-0.0095,-0.0084,-0.0124,-0.0122,-0.0026,-0.0016,-0.0006,0.0034,0.0038,0.0042,0.0045,0.0142,0.0142,0.0142,0,0,0,0,0,0,-0.0287,-0.0281,-0.0216,-0.0236,-0.0225,-0.0174,-0.0168,-0.016,-0.0146,-0.0082,-0.007,-0.0118,-0.0025,-0.0012,0.0024,0.0038,0.0044,0.0048,0.0142,0.0142,0.0142,0.0103,0,0,0,0,0,0,-0.029,-0.0282,-0.0295,-0.0237,-0.0224,-0.0191,-0.0168,-0.0158,-0.0136,-0.0133,-0.0073,-0.0061,-0.0024,0.0017,0.0028,0.0044,0.0052,0.0142,0.0142,0.0142,0.0104,0.0102,0.01,0,0,0,0,0,-0.0294,-0.0307,-0.0296,-0.0289,-0.0239,-0.019,-0.0182,-0.0145,-0.0137,-0.0131,-0.0097,-0.0063,0.0026,0.002,0.0033,0.0051,0.0142,0.0142,0.0142,0.0105,0.0102,0.01,0,0,0,0,0,0,-0.0346,-0.0302,-0.0289,-0.0288,-0.0244,-0.0181,-0.0175,-0.015,-0.0119,-0.0118,-0.0065,-0.0051,-0.0015,0.0019,0.0011,0.0079,0.0091,0.0094,0.0058,0.0056,0.0054,0.0052,0.0055,0,0,0,0,0,-0.0365,-0.037,-0.0309,-0.0311,-0.0287,-0.0234,-0.0215,-0.0186,-0.0144,-0.013,-0.0088,-0.0044,-0.0005,0.0025,0.006,0.0099,0.0149,0.012,0.0117,0.0115,0.0122,0.0183,0.0187,0.0143,0.0143,0.0143,0,0,-0.0381,-0.0363,-0.0363,-0.0324,-0.0286,-0.0257,-0.0222,-0.019,-0.017,-0.0121,-0.0091,-0.0055,-0.0,0.0039,0.006,0.0073,0.0158,0.0115,0.0113,0.0121,0.0184,0.0188,0.0192,0.0143,0.0143,0.0143,0,0,-0.0407,-0.04,-0.0402,-0.037,-0.032,-0.0284,-0.0276,-0.0213,-0.019,-0.0157,-0.0118,-0.0072,-0.0017,0.0035,0.0065,0.0074,0.0135,0.0082,0.0084,0.0142,0.0147,0.0151,0.024,0.0252,0.0092,0.0092,0.0092,0,-0.0431,-0.0426,-0.0393,-0.0378,-0.0356,-0.0298,-0.0279,-0.0245,-0.0184,-0.0157,-0.0154,-0.0058,-0.0014,0.0054,0.0054,0.0072,0.0118,0.0088,0.014,0.0145,0.015,0.024,0.0254,0.009,0.009,0.009,0.0091,0,-0.0445,-0.044,-0.0434,-0.0403,-0.0377,-0.0353,-0.0293,-0.0264,-0.0234,-0.0191,-0.0131,-0.0073,-0.0009,0.0012,0.0036,0.01,0.0126,0.012,0.0146,0.0152,0.0247,0.0262,0.0087,0.0088,0.0089,0.0089,0,0,-0.0489,-0.0453,-0.0451,-0.0445,-0.0389,-0.037,-0.0329,-0.0269,-0.0239,-0.0184,-0.013,-0.0065,-0.0028,0.0009,0.0055,0.0111,0.0193,0.0127,0.0131,0.0215,0.0345,0.0264,0.0274,0.0187,0.0189,0.0191,0.0404,0,-0.0504,-0.0501,-0.0472,-0.0462,-0.0446,-0.0389,-0.036,-0.0304,-0.0247,-0.0183,-0.0102,-0.0049,-0.0029,0.0,0.0062,0.0159,0.0228,0.0137,0.0328,0.0335,0.0259,0.0286,0.0238,0.0414,0.042,0.0422,0.0424,0,-0.0513,-0.0519,-0.0514,-0.0492,-0.0478,-0.047,-0.041,-0.0378,-0.0269,-0.0215,-0.0131,-0.007,0.0041,0.0036,0.0222,0.016,0.0247,0.032,0.033,0.0276,0.028,0.0405,0.0442,0.0451,0.0449,0.0447,0.0445,0,-0.0556,-0.054,-0.0549,-0.0541,-0.0505,-0.0498,-0.0482,-0.0394,-0.035,-0.0238,-0.018,-0.0053,0.0036,0.0141,0.0287,0.0258,0.0491,0.0475,0.0497,0.0495,0.0504,0.0496,0.0598,0.0598,0.0597,0.0597,0.0596,0,-0.0577,-0.0582,-0.058,-0.0588,-0.0617,-0.0563,-0.0553,-0.0504,-0.0394,-0.031,-0.0216,-0.0101,0.006,0.021,0.0312,0.0459,0.0519,0.051,0.0537,0.0488,0.0477,0.0537,0.0527,0.0605,0.0603,0.0602,0.06,0,-0.0612,-0.0597,-0.0624,-0.0627,-0.0638,-0.0666,-0.063,-0.0598,-0.0489,-0.0367,-0.0329,-0.0106,0.0084,0.0234,0.0459,0.0502,0.0636,0.067,0.061,0.062,0.0605,0.0591,0.0726,0.0724,0.0723,0.0722,0.0722,0,-0.0628,-0.0644,-0.0692,-0.0738,-0.0751,-0.0774,-0.0774,-0.0671,-0.0596,-0.035,-0.0274,-0.0062,0.0082,0.0355,0.0487,0.0639,0.067,0.0673,0.0579,0.0602,0.0616,0.0603,0.059,0.0617,0.0616,0.0614,0.0613,0,-0.0692,-0.0708,-0.0751,-0.0846,-0.0882,-0.0886,-0.0855,-0.0794,-0.0606,-0.0518,-0.0293,-0.0173,0.013,0.0292,0.0464,0.0544,0.0625,0.0645,0.0734,0.054,0.0501,0.0513,0.0505,0.0602,0.0603,0.0604,0.0604,0.0605,-0.0765,-0.0822,-0.0888,-0.0969,-0.1004,-0.0975,-0.0954,-0.0858,-0.0767,-0.0538,-0.0369,-0.0168,0.0044,0.0255,0.0407,0.0559,0.0547,0.057,0.0575,0.0581,0.0478,0.0433,0.0507,0.0507,0.0508,0.0508,0.0509,0,-0.0872,-0.0921,-0.1009,-0.1078,-0.1114,-0.1078,-0.0987,-0.0932,-0.0827,-0.0585,-0.0433,-0.0235,-0.0058,0.021,0.0412,0.0483,0.0501,0.0515,0.0536,0.0543,0.0551,0.0448,0.0469,0.047,0.0471,0.0471,0,0,-0.0934,-0.1039,-0.1068,-0.1161,-0.1177,-0.1158,-0.1086,-0.0987,-0.0824,-0.0641,-0.0447,-0.0283,-0.0007,0.0115,0.0247,0.0395,0.0446,0.0397,0.0407,0.042,0.0427,0.0549,0.0391,0,0,0,0,0]}],[{"header":{"parameterUnit":"m.s-1","parameterCategory":2,"la1":30.2991,"la2":30.254,"lo1":-89.0895,"lo2":-89.0444,"dy":0.0017,"dx":0.0017,"nx":28,"ny":28,"refTime":"2024-07-04T21:00:00:Z","depth":"4","parameterNumber":2,"parameterNumberName":"U-component_of_CURRENTS"},"data":[0,0,0,0,0,0,0,0,0,0,0,0,0,0,0,0,0,0,0,0,0,0,0,0,0,0,0,0,0,0,0,0,0,0,0,0,0,0,0,0,0,0,0,0,0,0,0,0,0,0,0,0,0,0,0,0,0,0,-0.1521,-0.1522,0,-0.1555,-0.1556,-0.1556,-0.1584,-0.1585,-0.1585,-0.1585,-0.1635,-0.1636,-0.1637,0,0,0,0,0,0,0,0,0,0,0,0,0,-0.1467,-0.1468,-0.1521,-0.1522,-0.1522,-0.1555,-0.1556,-0.1556,-0.1584,-0.1585,-0.1585,-0.1586,-0.1635,-0.1636,-0.1637,0,0,0,0,0,0,0,0,0,0,0,0,0,-0.1493,-0.1468,-0.1521,-0.1542,-0.1544,-0.1555,-0.1556,-0.1556,-0.1584,-0.1585,-0.1585,-0.1586,-0.1635,-0.1636,-0.1637,-0.1632,0,0,-0.1641,-0.1642,0,0,0,0,0,0,0,0,-0.1492,-0.1495,-0.1538,-0.154,-0.1543,-0.1568,-0.1555,-0.1583,-0.1584,-0.1567,-0.1585,-0.1586,-0.1615,-0.1618,-0.162,-0.1634,-0.1636,-0.1641,-0.1642,-0.1643,-0.1643,0,0,0,0,0,0,0,-0.149,-0.1494,-0.1533,-0.1539,-0.1542,-0.1545,-0.1549,-0.156,-0.1585,-0.1568,-0.1571,-0.1577,-0.1616,-0.1618,-0.1621,-0.1637,-0.1641,-0.1643,-0.1643,-0.1644,-0.1684,-0.1684,0,0,0,0,0,0,-0.1489,-0.1492,-0.1532,-0.1534,-0.1521,-0.1545,-0.155,-0.1558,-0.1585,-0.159,-0.1577,-0.1579,-0.1616,-0.162,-0.1623,-0.1683,-0.1643,-0.1644,-0.1645,-0.1684,-0.1684,-0.1684,0,0,0,0,0,0,-0.1488,-0.1493,-0.1531,-0.1515,-0.1521,-0.1546,-0.1554,-0.1558,-0.1588,-0.1592,-0.1597,-0.1606,-0.1617,-0.1621,-0.1649,-0.1683,-0.1645,-0.1646,-0.1683,-0.1684,-0.1684,-0.1761,0,0,0,0,0,0,-0.1486,-0.1492,-0.151,-0.1515,-0.1522,-0.1555,-0.1554,-0.1558,-0.159,-0.1593,-0.1618,-0.1621,-0.1617,-0.1647,-0.1651,-0.1684,-0.1647,-0.1683,-0.1683,-0.1684,-0.1758,-0.1764,-0.1769,0,0,0,0,0,-0.1484,-0.1502,-0.1511,-0.1517,-0.1542,-0.1556,-0.156,-0.1579,-0.1591,-0.1608,-0.162,-0.1622,-0.1652,-0.1649,-0.1653,-0.1687,-0.1683,-0.1683,-0.1684,-0.1756,-0.1763,-0.1769,0,0,0,0,0,0,-0.1488,-0.1506,-0.1517,-0.154,-0.1557,-0.1562,-0.1582,-0.1595,-0.1618,-0.1628,-0.1631,-0.1635,-0.1671,-0.166,-0.1657,-0.1695,-0.1666,-0.1667,-0.1719,-0.1726,-0.1731,-0.1715,-0.1648,0,0,0,0,0,-0.1497,-0.152,-0.1531,-0.1555,-0.1562,-0.1578,-0.1593,-0.1606,-0.162,-0.1632,-0.1649,-0.1659,-0.1671,-0.1685,-0.169,-0.1716,-0.1693,-0.1736,-0.1741,-0.1746,-0.1732,-0.1724,-0.1727,-0.1686,-0.1686,-0.1686,0,0,-0.1509,-0.1521,-0.1537,-0.1559,-0.1572,-0.1588,-0.1589,-0.1617,-0.1641,-0.1633,-0.1677,-0.1684,-0.168,-0.1709,-0.1724,-0.171,-0.1748,-0.1747,-0.1752,-0.1734,-0.1725,-0.1729,-0.1732,-0.1686,-0.1686,-0.1686,0,0,-0.1525,-0.155,-0.1567,-0.1582,-0.1607,-0.1617,-0.1631,-0.1652,-0.1673,-0.1708,-0.1708,-0.1729,-0.1755,-0.1755,-0.1758,-0.1792,-0.1777,-0.1802,-0.1823,-0.1816,-0.182,-0.1823,-0.1814,-0.1815,-0.1806,-0.1806,-0.1806,0,-0.1538,-0.1558,-0.1576,-0.159,-0.1607,-0.1632,-0.1649,-0.1674,-0.1706,-0.172,-0.1732,-0.1762,-0.1771,-0.1791,-0.1805,-0.1807,-0.1797,-0.1807,-0.1825,-0.1827,-0.1828,-0.1819,-0.1819,-0.181,-0.1809,-0.1809,-0.1808,0,-0.1553,-0.1581,-0.1592,-0.162,-0.1641,-0.1664,-0.1691,-0.1724,-0.1756,-0.1772,-0.181,-0.1819,-0.1827,-0.1846,-0.1841,-0.186,-0.1848,-0.1837,-0.1814,-0.1838,-0.1825,-0.1825,-0.1815,-0.1814,-0.1812,-0.1812,0,0,-0.1544,-0.1593,-0.16,-0.1617,-0.1659,-0.1673,-0.1719,-0.1752,-0.1781,-0.182,-0.1847,-0.1876,-0.1878,-0.1877,-0.1881,-0.1883,-0.1901,-0.187,-0.1868,-0.1869,-0.1888,-0.1747,-0.1732,-0.1901,-0.1901,-0.1901,-0.1881,0,-0.1549,-0.1583,-0.1607,-0.1648,-0.1663,-0.1701,-0.1739,-0.1778,-0.1814,-0.185,-0.1868,-0.1893,-0.1891,-0.1904,-0.1907,-0.1903,-0.1899,-0.1907,-0.1855,-0.1853,-0.1732,-0.1726,-0.19,-0.188,-0.188,-0.188,-0.188,0,-0.154,-0.1569,-0.1606,-0.1657,-0.1667,-0.1699,-0.1754,-0.1788,-0.1841,-0.1868,-0.1892,-0.1907,-0.1924,-0.1916,-0.191,-0.1918,-0.19,-0.1894,-0.1893,-0.1725,-0.1708,-0.1845,-0.1878,-0.1878,-0.1878,-0.1878,-0.1878,0,-0.1506,-0.156,-0.1594,-0.1611,-0.1676,-0.1703,-0.1737,-0.1793,-0.1809,-0.1871,-0.1885,-0.1916,-0.1917,-0.1916,-0.1893,-0.191,-0.1873,-0.1893,-0.1746,-0.1737,-0.1841,-0.1838,-0.1868,-0.1868,-0.1868,-0.1868,-0.1869,0,-0.148,-0.1509,-0.1585,-0.1602,-0.1632,-0.1688,-0.1723,-0.176,-0.1808,-0.1804,-0.1879,-0.1869,-0.1914,-0.1898,-0.1893,-0.1796,-0.1864,-0.1731,-0.1712,-0.1875,-0.1876,-0.1841,-0.1838,-0.1868,-0.1868,-0.1868,-0.1868,0,-0.1427,-0.1482,-0.1519,-0.1596,-0.1613,-0.1633,-0.1683,-0.1688,-0.1763,-0.176,-0.1772,-0.1825,-0.1807,-0.1826,-0.1815,-0.1757,-0.1711,-0.1656,-0.182,-0.1814,-0.1591,-0.1593,-0.1508,-0.1502,-0.1498,-0.1494,-0.1491,0,-0.14,-0.1418,-0.1494,-0.1496,-0.1529,-0.1568,-0.1567,-0.1641,-0.1633,-0.1703,-0.1668,-0.1694,-0.1712,-0.1584,-0.1637,-0.1603,-0.1581,-0.1547,-0.1575,-0.1558,-0.155,-0.1559,-0.1566,-0.1484,-0.1482,-0.1481,-0.148,0,-0.1338,-0.1379,-0.1401,-0.1405,-0.1409,-0.1406,-0.1418,-0.1407,-0.1471,-0.1561,-0.151,-0.1504,-0.1476,-0.1481,-0.1443,-0.1428,-0.1572,-0.15,-0.151,-0.1536,-0.1528,-0.1526,-0.1539,-0.1464,-0.1467,-0.1468,-0.1469,0,-0.1282,-0.1278,-0.1298,-0.1277,-0.1266,-0.1208,-0.1259,-0.1232,-0.124,-0.1332,-0.131,-0.1365,-0.1436,-0.1386,-0.1362,-0.1324,-0.1323,-0.1283,-0.1305,-0.1324,-0.1272,-0.1236,-0.1044,0,0,0,0,0,-0.1219,-0.1181,-0.1155,-0.1109,-0.1085,-0.1073,-0.1114,-0.1174,-0.1259,-0.1166,-0.1235,-0.1208,-0.1187,-0.1231,-0.1156,-0.1294,-0.1332,-0.1201,-0.1299,-0.1376,-0.1395,-0.1352,0,0,0,0,0,0,-0.1169,-0.1153,-0.111,-0.0939,-0.0877,-0.0829,-0.0853,-0.0932,-0.0905,-0.102,-0.1018,-0.1105,-0.111,-0.1189,-0.1116,-0.1127,-0.1157,-0.1248,-0.1243,-0.1366,-0.1383,-0.1397,-0.136,0,0,0,0,0]},{"header":{"parameterUnit":"m.s-1","parameterCategory":2,"la1":30.2991,"la2":30.254,"lo1":-89.0895,"lo2":-89.0444,"dy":0.0017,"dx":0.0017,"nx":28,"ny":28,"refTime":"2024-07-04T21:00:00:Z","depth":"4","parameterNumber":3,"parameterNumberName":"V-component_of_CURRENTS"},"data":[0,0,0,0,0,0,0,0,0,0,0,0,0,0,0,0,0,0,0,0,0,0,0,0,0,0,0,0,0,0,0,0,0,0,0,0,0,0,0,0,0,0,0,0,0,0,0,0,0,0,0,0,0,0,0,0,0,0,-0.0156,-0.0155,0,-0.0101,-0.01,-0.01,-0.007,-0.007,-0.0069,-0.0069,-0.0005,-0.0003,-0.0002,0,0,0,0,0,0,0,0,0,0,0,0,0,-0.0209,-0.0209,-0.0156,-0.0155,-0.0154,-0.0101,-0.01,-0.01,-0.007,-0.007,-0.0069,-0.0069,-0.0005,-0.0003,-0.0002,0,0,0,0,0,0,0,0,0,0,0,0,0,-0.0175,-0.0208,-0.0156,-0.0131,-0.0128,-0.0101,-0.01,-0.0099,-0.007,-0.007,-0.0069,-0.0069,-0.0006,-0.0004,-0.0001,0.0004,0,0,0.0005,0.0006,0,0,0,0,0,0,0,0,-0.0177,-0.0174,-0.0136,-0.0133,-0.0129,-0.009,-0.0095,-0.0064,-0.007,-0.0094,-0.0069,-0.0069,-0.0031,-0.0027,-0.0021,0.0007,0.001,0.0005,0.0007,0.0008,0.0008,0,0,0,0,0,0,0,-0.018,-0.0176,-0.0136,-0.0135,-0.0131,-0.0114,-0.0109,-0.0089,-0.0067,-0.0092,-0.0089,-0.008,-0.003,-0.0023,-0.0019,0.0011,0.0005,0.0007,0.0009,0.001,0.0046,0.0045,0,0,0,0,0,0,-0.0184,-0.0178,-0.0138,-0.0134,-0.015,-0.0113,-0.0108,-0.0105,-0.0067,-0.0061,-0.008,-0.0079,-0.0027,-0.0021,-0.0016,0.0017,0.0008,0.001,0.0011,0.0046,0.0046,0.0045,0,0,0,0,0,0,-0.0185,-0.0181,-0.014,-0.0153,-0.0146,-0.0112,-0.0109,-0.0104,-0.0096,-0.0058,-0.0052,-0.0078,-0.0026,-0.0019,0.0001,0.0019,0.0011,0.0013,0.0046,0.0046,0.0045,0.0069,0,0,0,0,0,0,-0.0187,-0.0182,-0.0191,-0.0153,-0.0145,-0.0123,-0.0109,-0.0103,-0.0089,-0.0087,-0.0054,-0.0047,-0.0025,-0.0002,0.0003,0.0022,0.0015,0.0047,0.0046,0.0045,0.0068,0.0069,0.007,0,0,0,0,0,-0.019,-0.0197,-0.0192,-0.0188,-0.0156,-0.0123,-0.0117,-0.0093,-0.009,-0.0086,-0.0065,-0.0048,-0.0003,-0.0001,0.0006,0.0026,0.0047,0.0046,0.0046,0.0068,0.0069,0.0069,0,0,0,0,0,0,-0.0222,-0.0193,-0.0188,-0.0186,-0.0158,-0.0117,-0.0112,-0.0097,-0.0079,-0.0079,-0.0049,-0.0041,-0.0018,-0.0009,-0.0007,0.0029,0.0023,0.0024,0.0038,0.0039,0.0039,0.0047,0.0016,0,0,0,0,0,-0.0235,-0.0238,-0.0198,-0.02,-0.0184,-0.0152,-0.014,-0.0121,-0.0094,-0.0086,-0.0062,-0.0041,-0.0017,0.0001,0.0016,0.004,0.0039,0.0053,0.0053,0.0054,0.0061,0.0096,0.0101,0.0042,0.0042,0.0042,0,0,-0.0247,-0.0234,-0.0235,-0.0209,-0.0186,-0.016,-0.0144,-0.0123,-0.0103,-0.0082,-0.0058,-0.004,-0.0015,0.0014,0.0025,0.0028,0.0057,0.0053,0.0054,0.0061,0.0096,0.0102,0.0107,0.0042,0.0042,0.0042,0,0,-0.026,-0.026,-0.0256,-0.0233,-0.02,-0.0177,-0.0172,-0.0131,-0.0115,-0.0092,-0.0069,-0.0037,-0.0015,0.0026,0.0045,0.0055,0.0054,0.0048,0.0071,0.0105,0.0111,0.0116,0.0073,0.0074,0.0056,0.0056,0.0056,0,-0.0277,-0.0269,-0.025,-0.023,-0.0216,-0.0184,-0.0166,-0.014,-0.0101,-0.0083,-0.0087,-0.0028,-0.0002,0.0056,0.0062,0.0063,0.0049,0.0073,0.0109,0.0114,0.0119,0.0074,0.0076,0.0057,0.0057,0.0057,0.0057,0,-0.0271,-0.0268,-0.0261,-0.0233,-0.0213,-0.0197,-0.0152,-0.0134,-0.0119,-0.0088,-0.0044,-0.0006,0.0031,0.0048,0.0063,0.0116,0.0078,0.0102,0.0114,0.0127,0.0077,0.0078,0.0059,0.0058,0.0058,0.0058,0,0,-0.0302,-0.0266,-0.0267,-0.0266,-0.0217,-0.0208,-0.0166,-0.0122,-0.0113,-0.006,-0.004,0.0035,0.0055,0.0077,0.0107,0.015,0.0164,0.0141,0.0142,0.0107,0.0176,0.0163,0.0162,0.0198,0.02,0.0201,0.0109,0,-0.0305,-0.0295,-0.0264,-0.0258,-0.0249,-0.0208,-0.0182,-0.014,-0.0111,-0.0088,-0.0012,0.0009,0.0067,0.007,0.0134,0.0148,0.0175,0.0183,0.016,0.0158,0.0156,0.0168,0.0206,0.011,0.011,0.0111,0.0111,0,-0.0302,-0.0307,-0.03,-0.0293,-0.0285,-0.0275,-0.0251,-0.0222,-0.0156,-0.0134,-0.0064,-0.0028,0.0048,0.0078,0.0155,0.0152,0.0168,0.0187,0.0184,0.0173,0.015,0.0104,0.0113,0.0112,0.0112,0.0112,0.0112,0,-0.0349,-0.0332,-0.0344,-0.0336,-0.0311,-0.0309,-0.0297,-0.0241,-0.0234,-0.0171,-0.018,-0.0064,-0.0063,0.0031,0.008,0.0112,0.0126,0.0172,0.0173,0.0167,0.0196,0.0192,0.0228,0.0228,0.0228,0.0229,0.0229,0,-0.0364,-0.0377,-0.0379,-0.0389,-0.0424,-0.0376,-0.0394,-0.0359,-0.0323,-0.0328,-0.022,-0.022,-0.0073,-0.0043,0.0041,0.009,0.0096,0.0174,0.0165,0.0196,0.0194,0.0193,0.019,0.0225,0.0226,0.0227,0.0227,0,-0.04,-0.039,-0.0424,-0.0434,-0.0445,-0.0475,-0.0482,-0.0494,-0.0449,-0.046,-0.045,-0.0366,-0.0293,-0.0178,-0.0078,-0.0004,0.0069,0.0079,0.0034,0.0023,0.009,0.0089,0.0089,0.0088,0.0088,0.0087,0.0087,0,-0.0413,-0.0432,-0.0486,-0.0529,-0.0542,-0.0577,-0.0601,-0.0563,-0.0569,-0.055,-0.0567,-0.0512,-0.0434,-0.0325,-0.0178,-0.0032,0.0012,0.0003,0.0144,0.0095,0.0086,0.0086,0.0086,0.0086,0.0085,0.0085,0.0085,0,-0.0463,-0.0486,-0.0526,-0.0617,-0.067,-0.0712,-0.0741,-0.075,-0.0705,-0.0691,-0.0656,-0.0561,-0.0497,-0.0332,-0.0243,-0.0122,0.0002,-0.0002,0.0003,0.0135,0.0091,0.0082,0.0083,0.0083,0.0083,0.0083,0.0084,0,-0.0518,-0.0571,-0.0635,-0.0708,-0.0773,-0.0815,-0.0818,-0.0813,-0.0804,-0.0745,-0.0751,-0.0631,-0.056,-0.0387,-0.0299,-0.0179,-0.0104,-0.0062,-0.0052,-0.0048,-0.0023,-0.0095,-0.0168,0,0,0,0,0,-0.0579,-0.0643,-0.072,-0.0797,-0.0851,-0.0883,-0.0896,-0.0877,-0.0841,-0.082,-0.0765,-0.0678,-0.0502,-0.0433,-0.0306,-0.029,-0.0094,-0.0142,-0.0043,0.0071,0.0073,0.0132,0,0,0,0,0,0,-0.0629,-0.0713,-0.0741,-0.0842,-0.0895,-0.0955,-0.0956,-0.0932,-0.0888,-0.0836,-0.0729,-0.0674,-0.0489,-0.0574,-0.0315,-0.0281,-0.0207,-0.0054,-0.0052,0.0069,0.0072,0.0074,0.0135,0,0,0,0,0]}]]